MOLNIYA 3-24

Last updated on Jan. 26, 2021, 8:12 a.m. UTC

1 15738U 85040A   21025.39551801  .00000142  00000-0  00000-0 0  9990
2 15738  63.8347 170.5211 6547750 249.9019  32.0343  2.55627878290884
UTC
Height (km)
Latitude
Longitude
Inclination
Orbital Period
UTC large
Height (km)
Speed (km/s)
/
Latitude / Longitude
Inclination (degrees)
Orbital Period (minutes)
Azimuth
Elevation
Range (km)
Doppler Factor
iOS Compass Heading
iOS Angle

Next 30 passes for location: Hong Kong

Rise time Rise Azimuth (degrees) Set time Set Azimuth (degrees) Duration Max altitude (degrees)

No matching passes for this satellites